Waarnemingen

Advertentie
Mijn weer
Charleroi/Gosselies, België (6449): temperatuur & dauwpunt: 15.10.2017 08:00:00 - 21.10.2017 08:00:00 (CEST)Charleroi/Gosselies, België (6449): windsnelheid & windstoten: 15.10.2017 08:00:00 - 21.10.2017 08:00:00 (CEST)Charleroi/Gosselies, België (6449): windrichting: 15.10.2017 08:00:00 - 21.10.2017 08:00:00 (CEST)Charleroi/Gosselies, België (6449): luchtdruk: 15.10.2017 08:00:00 - 21.10.2017 08:00:00 (CEST)Charleroi/Gosselies, België (6449): zicht: 15.10.2017 08:00:00 - 21.10.2017 08:00:00 (CEST)
Datum & Tijd tt [°C] td [°C] ff [km/u] ff [kn] fx [km/u] fx [kn] dd ppp [hPa] vv [km]
21.10.2017 08:00:00 13,0 11,0 24 13 - - Z - 10
21.10.2017 07:00:00 12,7 10,0 18 10 36 19 Z 1010,7 10
21.10.2017 06:00:00 12,0 9,2 21 11 36 19 Z 1010,6 10
21.10.2017 05:00:00 11,4 7,9 18 10 - - Z 1011,2 10
21.10.2017 04:00:00 11,2 7,6 16 9 29 16 Z 1012,1 10
21.10.2017 03:00:00 11,2 7,4 16 9 25 14 Z 1012,8 10
21.10.2017 02:00:00 11,3 7,3 15 8 - - Z 1013,2 10
21.10.2017 01:00:00 10,5 6,8 13 7 29 16 Z 1013,6 10
21.10.2017 00:00:00 10,5 6,7 18 10 29 16 ZZW 1014,1 10
20.10.2017 23:00:00 10,3 6,7 13 7 - - ZZW 1014,3 10
20.10.2017 22:00:00 11,0 6,3 16 9 25 14 ZZW 1014,5 10
20.10.2017 21:00:00 11,5 6,4 15 8 32 18 ZZW 1014,4 10
20.10.2017 20:00:00 12,1 6,3 21 11 - - ZZW 1014,3 10
20.10.2017 19:00:00 13,0 6,3 28 15 43 23 ZW 1013,7 10
20.10.2017 18:00:00 13,4 6,5 29 16 47 25 ZW 1013,1 10
20.10.2017 17:00:00 13,6 7,4 26 14 - - ZW 1012,7 10
20.10.2017 16:00:00 13,6 8,4 31 17 50 27 ZW 1012,3 10
20.10.2017 15:00:00 12,7 7,8 39 21 58 31 ZW 1012,2 10
20.10.2017 14:00:00 12,9 8,1 39 21 - - ZW 1011,8 10
20.10.2017 13:00:00 13,3 7,9 41 22 54 29 ZW 1011,3 10
20.10.2017 12:00:00 12,7 8,0 28 15 54 29 ZZW 1010,7 10
20.10.2017 11:00:00 12,3 8,4 31 17 - - ZW 1010,2 10
20.10.2017 10:00:00 11,9 8,6 28 15 47 25 ZW 1009,5 10
20.10.2017 09:00:00 12,3 9,9 28 15 47 25 ZZW 1008,4 10
20.10.2017 08:00:00 12,8 10,8 29 16 - - ZW 1007,5 10
20.10.2017 07:00:00 13,6 12,3 26 14 43 23 ZZW 1006,9 7
20.10.2017 06:00:00 14,8 11,9 28 15 43 23 Z 1006,4 10
20.10.2017 05:00:00 15,5 11,5 16 9 - - Z 1006,9 10
20.10.2017 04:00:00 15,8 11,4 21 11 36 19 Z 1007,3 10
20.10.2017 03:00:00 16,6 11,2 18 10 32 18 Z 1007,5 10
20.10.2017 02:00:00 17,1 11,1 22 12 - - ZZW 1007,9 10
20.10.2017 01:00:00 17,8 10,6 21 11 36 19 Z 1007,5 10
20.10.2017 00:00:00 17,9 9,9 15 8 32 18 Z 1007,7 10
19.10.2017 23:00:00 18,5 10,3 16 9 - - Z 1007,9 10
19.10.2017 22:00:00 18,5 10,8 16 9 25 14 Z 1007,7 10
19.10.2017 21:00:00 18,0 12,1 13 7 25 14 Z 1008,1 10
19.10.2017 20:00:00 18,8 12,4 13 7 - - Z 1008,1 10
19.10.2017 19:00:00 19,8 13,1 11 6 29 16 Z 1008,1 10
19.10.2017 18:00:00 20,3 12,4 18 10 43 23 Z 1008,0 10
19.10.2017 17:00:00 20,8 11,9 28 15 - - ZZW 1008,0 10
19.10.2017 16:00:00 21,3 11,9 21 11 36 19 Z 1007,9 10
19.10.2017 15:00:00 21,2 12,0 16 9 29 16 Z 1008,4 10
19.10.2017 14:00:00 19,5 12,5 15 8 - - Z 1009,2 10
19.10.2017 13:00:00 17,4 11,4 13 7 29 16 ZZO 1010,2 10
19.10.2017 12:00:00 16,7 11,2 16 9 25 14 ZZO 1010,5 10
19.10.2017 11:00:00 15,5 11,3 15 8 - - ZZO 1010,7 10
19.10.2017 10:00:00 13,4 10,3 11 6 18 10 ZZO 1011,2 10
19.10.2017 09:00:00 11,9 9,7 8 4 14 8 ZZO 1011,1 10
19.10.2017 08:00:00 11,0 9,0 9 5 - - ZO - 10
19.10.2017 07:00:00 11,7 9,4 9 5 18 10 ZZO 1011,2 10
19.10.2017 06:00:00 12,2 9,7 13 7 18 10 ZO 1011,2 10
19.10.2017 05:00:00 12,0 10,1 8 4 - - ZZO 1011,7 10
19.10.2017 04:00:00 12,7 10,2 9 5 14 8 ZZO 1012,2 10
19.10.2017 03:00:00 12,9 10,8 9 5 14 8 ZZO 1012,5 10
19.10.2017 02:00:00 13,2 11,3 9 5 - - ZZO 1012,5 10
19.10.2017 01:00:00 14,3 11,6 9 5 14 8 ZZO 1012,7 10
19.10.2017 00:00:00 14,4 11,7 11 6 18 10 Z 1012,9 10
18.10.2017 23:00:00 14,9 11,9 9 5 - - Z 1012,9 10
18.10.2017 22:00:00 15,7 12,1 8 4 14 8 ZZO 1012,9 10
18.10.2017 21:00:00 16,1 12,5 8 4 14 8 Z 1012,8 10
18.10.2017 20:00:00 17,1 12,5 5 3 - - Z 1012,7 10
18.10.2017 19:00:00 17,9 12,9 9 5 18 10 ZZW 1012,5 10
18.10.2017 18:00:00 19,0 13,0 11 6 22 12 Z 1012,3 10
18.10.2017 17:00:00 20,0 13,2 13 7 - - ZZW 1012,1 10
18.10.2017 16:00:00 20,8 13,8 13 7 25 14 ZW 1012,2 10
18.10.2017 15:00:00 19,8 12,9 13 7 25 14 ZZW 1012,5 10
18.10.2017 14:00:00 19,2 13,1 15 8 - - ZZW 1012,9 10
18.10.2017 13:00:00 18,7 12,5 16 9 25 14 ZZW 1013,2 10
18.10.2017 12:00:00 17,0 11,6 16 9 25 14 Z 1013,5 10
18.10.2017 11:00:00 14,7 10,5 13 7 - - Z 1013,8 10
18.10.2017 10:00:00 12,3 9,9 11 6 14 8 Z 1014,0 10
18.10.2017 09:00:00 10,6 9,1 9 5 18 10 ZZO 1014,1 10
18.10.2017 08:00:00 10,2 9,1 9 5 - - ZZO 1013,9 8
18.10.2017 07:00:00 10,2 9,6 4 2 11 6 - 1014,3 6
18.10.2017 06:00:00 8,6 8,3 4 2 7 4 NNO 1014,6 1,2
18.10.2017 05:00:00 10,9 10,2 2 1 - - - 1014,5 2,5
18.10.2017 04:00:00 11,5 10,7 5 3 7 4 OZO 1014,8 2,5
18.10.2017 03:00:00 10,9 10,7 5 3 11 6 NO 1015,5 0,1
18.10.2017 02:00:00 11,5 11,4 9 5 - - ONO 1015,7 0,3
18.10.2017 01:00:00 12,2 11,7 8 4 11 6 ONO 1016,2 3,0
18.10.2017 00:00:00 12,8 12,2 9 5 11 6 O 1016,9 3,0
17.10.2017 23:00:00 13,1 12,3 9 5 - - ONO 1017,5 5
17.10.2017 22:00:00 13,7 12,7 9 5 14 8 ONO 1017,7 8
17.10.2017 21:00:00 14,7 13,5 9 5 14 8 O 1018,0 10
17.10.2017 20:00:00 15,5 13,7 11 6 - - ONO 1018,4 10
17.10.2017 19:00:00 16,1 13,9 9 5 14 8 NO 1018,5 10
17.10.2017 18:00:00 16,8 14,1 9 5 14 8 NO 1018,8 10
17.10.2017 17:00:00 17,3 14,1 9 5 - - NO 1019,5 10
17.10.2017 16:00:00 17,7 13,9 5 3 11 6 NNO 1019,9 10
17.10.2017 15:00:00 18,0 13,9 8 4 11 6 N 1020,5 10
17.10.2017 14:00:00 17,2 13,7 4 2 - - - 1021,4 10
17.10.2017 13:00:00 16,3 13,2 5 3 11 6 NW 1022,1 10
17.10.2017 12:00:00 15,3 13,3 5 3 11 6 ZW 1022,5 8
17.10.2017 11:00:00 14,2 12,6 8 4 - - ZZW 1022,9 8
17.10.2017 10:00:00 13,5 12,3 5 3 11 6 ZW 1023,2 8
17.10.2017 09:00:00 12,8 11,7 5 3 11 6 ZZW 1023,0 8
17.10.2017 08:00:00 12,7 11,7 5 3 - - ZW 1023,0 10
17.10.2017 07:00:00 13,3 12,0 5 3 11 6 ZZW 1022,9 10
17.10.2017 06:00:00 13,5 12,2 5 3 11 6 ZW 1022,8 10
17.10.2017 05:00:00 14,1 12,6 8 4 - - ZW 1022,6 10
17.10.2017 04:00:00 14,9 13,2 5 3 14 8 ZW 1022,4 10
17.10.2017 03:00:00 15,8 13,3 9 5 22 12 WZW 1022,2 10
17.10.2017 02:00:00 17,1 13,3 15 8 - - ZW 1021,8 10
17.10.2017 01:00:00 17,3 12,5 18 10 25 14 ZZW 1021,6 10
17.10.2017 00:00:00 17,6 12,4 18 10 25 14 ZZW 1021,5 10
16.10.2017 23:00:00 18,2 12,6 16 9 - - ZZW 1021,2 10
16.10.2017 22:00:00 18,5 12,6 16 9 29 16 Z 1021,0 10
16.10.2017 21:00:00 18,8 13,8 16 9 29 16 Z 1021,0 10
16.10.2017 20:00:00 19,4 14,2 16 9 - - Z 1020,7 10
16.10.2017 19:00:00 20,3 14,1 16 9 32 18 Z 1020,4 10
16.10.2017 18:00:00 22,1 13,3 18 10 32 18 Z 1019,7 10
16.10.2017 17:00:00 23,2 12,3 18 10 - - Z 1020,1 10
16.10.2017 16:00:00 24,1 11,7 22 12 36 19 Z 1020,0 10
16.10.2017 15:00:00 24,4 12,4 22 12 36 19 Z 1020,4 10
16.10.2017 14:00:00 23,4 13,8 22 12 - - Z 1021,0 10
16.10.2017 13:00:00 22,6 14,4 21 11 29 16 Z 1021,5 10
16.10.2017 12:00:00 21,2 14,2 16 9 29 16 Z 1021,9 10
16.10.2017 11:00:00 19,3 13,3 16 9 - - Z 1022,4 10
16.10.2017 10:00:00 17,4 13,5 13 7 22 12 Z 1022,6 10
16.10.2017 09:00:00 15,7 12,7 15 8 22 12 Z 1022,3 10
16.10.2017 08:00:00 16,1 12,8 11 6 - - ZZO 1022,0 10
16.10.2017 07:00:00 16,9 13,2 8 4 22 12 ZO 1021,9 10
16.10.2017 06:00:00 17,6 13,6 15 8 22 12 ZZW 1021,7 10
16.10.2017 05:00:00 17,4 13,9 8 4 - - O 1021,1 10
16.10.2017 04:00:00 17,4 13,2 15 8 25 14 Z 1021,3 10
16.10.2017 03:00:00 17,1 13,1 15 8 22 12 ZZW 1022,2 10
16.10.2017 02:00:00 17,1 12,9 15 8 - - Z 1022,3 10
16.10.2017 01:00:00 17,1 13,1 16 9 29 16 Z 1022,4 10
16.10.2017 00:00:00 17,2 13,3 16 9 29 16 Z 1022,3 10
15.10.2017 23:00:00 17,2 13,4 16 9 - - Z 1022,3 10
15.10.2017 22:00:00 17,4 13,1 16 9 32 18 Z 1022,2 10
15.10.2017 21:00:00 17,9 12,8 18 10 29 16 Z 1021,8 10
15.10.2017 20:00:00 18,5 12,7 21 11 - - Z 1021,5 10
15.10.2017 19:00:00 19,8 12,2 16 9 29 16 Z 1021,1 10
15.10.2017 18:00:00 21,7 11,3 21 11 40 21 Z 1020,6 10
15.10.2017 17:00:00 22,5 10,3 24 13 - - ZZW 1021,0 10
15.10.2017 16:00:00 23,2 10,0 18 10 29 16 Z 1021,3 10
15.10.2017 15:00:00 23,3 10,4 18 10 29 16 Z 1021,4 10
15.10.2017 14:00:00 22,5 11,6 21 11 - - Z 1021,9 10
15.10.2017 13:00:00 21,1 12,1 16 9 25 14 Z 1022,4 10
15.10.2017 12:00:00 19,2 11,7 15 8 29 16 Z 1022,9 10
15.10.2017 11:00:00 16,9 11,7 15 8 - - Z 1023,3 10
15.10.2017 10:00:00 13,9 11,3 16 9 22 12 ZZO 1023,8 10
15.10.2017 09:00:00 12,7 10,8 13 7 22 12 ZZO 1023,9 10
15.10.2017 08:00:00 11,6 10,4 9 5 - - ZZO 1024,1 10

tt = temperatuur
td = dauwpunt
ff = windsnelheid
fx = windstoten
dd = windrichting
ppp = luchtdruk
vv = zicht

Weerstations in de omgeving